Location: Peebles
(55.6412°N, 3.1714°W)
Time: 06:32:37
(UTC+00:00)

deb NNS O-4 - Visible Passes

Search period start: 01 December 2022 00:00
Search period end: 11 December 2022 00:00
Orbit: 977 x 1074 km, 89.9° (Epoch: 30 November)

Date Brightness Start Highest point End Pass type
(mag) Time Alt. Az. Time Alt. Az. Time Alt. Az.
01 Dec ? 02:12:54 10° NNE 02:13:00 10° NNE 02:13:00 10° NNE visible
01 Dec ? 03:58:10 10° N 03:58:42 13° N 03:58:42 13° N visible
01 Dec ? 17:47:35 10° W 17:51:19 16° WNW 17:55:01 10° NNW visible
02 Dec ? 02:52:42 10° N 02:52:56 11° N 02:52:56 11° N visible
02 Dec ? 04:38:34 10° N 04:38:39 10° N 04:38:39 10° N visible
02 Dec ? 16:39:07 10° SW 16:44:54 36° WNW 16:50:38 10° NNW visible
03 Dec ? 03:32:46 10° N 03:32:55 11° N 03:32:55 11° N visible
03 Dec ? 17:21:08 10° WSW 17:25:38 20° WNW 17:30:08 10° NNW visible
04 Dec ? 18:05:25 10° WNW 18:06:44 11° WNW 18:08:02 10° NW visible
05 Dec ? 16:54:55 10° SW 17:00:01 25° WNW 17:05:05 10° NNW visible
06 Dec ? 17:37:53 10° W 17:40:58 14° WNW 17:44:02 10° NNW visible
07 Dec ? 16:28:55 10° SW 16:34:27 32° WNW 16:39:57 10° NNW visible
08 Dec ? 17:11:12 10° WSW 17:15:15 18° WNW 17:19:17 10° NNW visible
10 Dec ? 16:44:51 10° WSW 16:49:35 22° WNW 16:54:19 10° NNW visible
